Torna al catalogo

FENGYUN 1C DEB

AttivoPO
NORAD 29884·DEBRIS·🇨🇳 China

Lanciato May 10, 1999 da Taiyuan Satellite Launch Center

Loading…

Prossimi Passaggi (prossime 24 ore)

TLE

AggiornatoSource: Space-Track

Epoca: Sep 14, 2026, 04:25 UTC

1 29884U 99025GE  26257.18447079  .00001160  00000-0  37112-3 0  9993
2 29884  99.5773 328.7423 0043700  59.5960 326.5581 14.41299220 25168

Traccia FENGYUN 1C DEB in tempo reale con AllMySat

Download on the App Store